Time,TemperatureF,DewpointF,PressureIn,WindDirection,WindDirectionDegrees,WindSpeedMPH,WindSpeedGustMPH,Humidity,HourlyPrecipIn,Conditions,Clouds,dailyrainin,SoftwareType,DateUTC
2013-05-07 00:03:00,52.3,42.5,29.48,NE,45,0.0,0.0,69,0.00,,,0.00,WUHU216HW,2013-05-07 07:03:00,
2013-05-07 00:08:00,52.3,42.9,29.48,NE,45,0.0,0.0,70,0.00,,,0.00,WUHU216HW,2013-05-07 07:08:00,
2013-05-07 00:13:00,51.9,42.6,29.48,NE,45,0.0,0.0,70,0.00,,,0.00,WUHU216HW,2013-05-07 07:13:00,
2013-05-07 00:19:00,51.6,42.2,29.48,NE,45,0.0,0.0,70,0.00,,,0.00,WUHU216HW,2013-05-07 07:19:00,
2013-05-07 00:24:00,51.4,42.0,29.47,NE,45,0.0,0.0,70,0.00,,,0.00,WUHU216HW,2013-05-07 07:24:00,
2013-05-07 00:29:00,51.4,42.0,29.48,NE,45,0.0,0.0,70,0.00,,,0.00,WUHU216HW,2013-05-07 07:29:00,
2013-05-07 00:34:00,51.0,41.7,29.48,NE,45,0.0,0.0,70,0.00,,,0.00,WUHU216HW,2013-05-07 07:34:00,
2013-05-07 00:39:00,50.9,41.8,29.47,NE,45,0.0,0.0,71,0.00,,,0.00,WUHU216HW,2013-05-07 07:39:00,
2013-05-07 00:44:00,50.7,41.7,29.48,NE,45,0.0,0.0,71,0.00,,,0.00,WUHU216HW,2013-05-07 07:44:00,
2013-05-07 00:49:00,50.3,41.6,29.48,NE,45,0.0,0.0,72,0.00,,,0.00,WUHU216HW,2013-05-07 07:49:00,
2013-05-07 00:54:00,50.1,41.5,29.48,NE,45,0.0,0.0,72,0.00,,,0.00,WUHU216HW,2013-05-07 07:54:00,
2013-05-07 00:59:00,50.1,41.5,29.49,NE,45,0.0,0.0,72,0.00,,,0.00,WUHU216HW,2013-05-07 07:59:00,
2013-05-07 01:04:00,49.8,41.1,29.49,NE,45,0.0,0.0,72,0.00,,,0.00,WUHU216HW,2013-05-07 08:04:00,
2013-05-07 01:09:00,49.8,41.4,29.49,NE,45,0.0,0.0,73,0.00,,,0.00,WUHU216HW,2013-05-07 08:09:00,
2013-05-07 01:14:00,49.6,41.3,29.49,NE,45,0.0,0.0,73,0.00,,,0.00,WUHU216HW,2013-05-07 08:14:00,
2013-05-07 01:19:00,49.4,41.1,29.48,NE,45,0.0,0.0,73,0.00,,,0.00,WUHU216HW,2013-05-07 08:19:00,
2013-05-07 01:24:00,49.2,40.9,29.49,NE,45,0.0,0.0,73,0.00,,,0.00,WUHU216HW,2013-05-07 08:24:00,
2013-05-07 01:29:00,49.1,41.1,29.48,NE,45,0.0,0.0,74,0.00,,,0.00,WUHU216HW,2013-05-07 08:29:00,
2013-05-07 01:34:00,48.9,40.9,29.49,NE,45,0.0,0.0,74,0.00,,,0.00,WUHU216HW,2013-05-07 08:34:00,
2013-05-07 01:39:00,48.7,41.0,29.48,NE,45,0.0,0.0,75,0.00,,,0.00,WUHU216HW,2013-05-07 08:39:00,
2013-05-07 01:44:00,48.7,41.0,29.49,NE,45,0.0,0.0,75,0.00,,,0.00,WUHU216HW,2013-05-07 08:44:00,
2013-05-07 01:49:00,48.5,40.9,29.49,NE,45,0.0,0.0,75,0.00,,,0.00,WUHU216HW,2013-05-07 08:49:00,
2013-05-07 01:54:00,48.3,40.7,29.48,NE,45,0.0,0.0,75,0.00,,,0.00,WUHU216HW,2013-05-07 08:54:00,
2013-05-07 01:59:00,48.2,40.8,29.49,NE,45,0.0,0.0,76,0.00,,,0.00,WUHU216HW,2013-05-07 08:59:00,
2013-05-07 02:04:00,48.0,40.7,29.49,NE,45,0.0,0.0,76,0.00,,,0.00,WUHU216HW,2013-05-07 09:04:00,
2013-05-07 02:09:00,48.0,40.7,29.49,NE,45,0.0,0.0,76,0.00,,,0.00,WUHU216HW,2013-05-07 09:09:00,
2013-05-07 02:14:00,48.0,41.0,29.49,NE,45,0.0,0.0,77,0.00,,,0.00,WUHU216HW,2013-05-07 09:14:00,
2013-05-07 02:19:00,47.8,40.9,29.48,NE,45,0.0,0.0,77,0.00,,,0.00,WUHU216HW,2013-05-07 09:19:00,
2013-05-07 02:24:00,47.6,40.7,29.49,NE,45,0.0,0.0,77,0.00,,,0.00,WUHU216HW,2013-05-07 09:24:00,
2013-05-07 02:29:00,47.4,40.5,29.49,NE,45,0.0,0.0,77,0.00,,,0.00,WUHU216HW,2013-05-07 09:29:00,
2013-05-07 02:34:00,47.3,40.4,29.49,NE,45,0.0,0.0,77,0.00,,,0.00,WUHU216HW,2013-05-07 09:34:00,
2013-05-07 02:39:00,47.3,40.4,29.49,NE,45,0.0,0.0,77,0.00,,,0.00,WUHU216HW,2013-05-07 09:39:00,
2013-05-07 02:44:00,47.1,40.2,29.49,NE,45,0.0,0.0,77,0.00,,,0.00,WUHU216HW,2013-05-07 09:44:00,
2013-05-07 02:49:00,47.1,40.2,29.49,NE,45,0.0,0.0,77,0.00,,,0.00,WUHU216HW,2013-05-07 09:49:00,
2013-05-07 02:54:00,47.1,40.6,29.49,NE,45,0.0,0.0,78,0.00,,,0.00,WUHU216HW,2013-05-07 09:54:00,
2013-05-07 02:59:00,46.9,40.4,29.49,NE,45,0.0,0.0,78,0.00,,,0.00,WUHU216HW,2013-05-07 09:59:00,
2013-05-07 03:04:00,46.7,40.2,29.49,NE,45,0.0,0.0,78,0.00,,,0.00,WUHU216HW,2013-05-07 10:04:00,
2013-05-07 03:09:00,46.7,40.2,29.49,NE,45,0.0,0.0,78,0.00,,,0.00,WUHU216HW,2013-05-07 10:09:00,
2013-05-07 03:14:00,46.5,40.1,29.50,NE,45,0.0,0.0,78,0.00,,,0.00,WUHU216HW,2013-05-07 10:14:00,
2013-05-07 03:19:00,46.5,40.1,29.49,NE,45,0.0,0.0,78,0.00,,,0.00,WUHU216HW,2013-05-07 10:19:00,
2013-05-07 03:24:00,46.2,39.7,29.50,NE,45,0.0,0.0,78,0.00,,,0.00,WUHU216HW,2013-05-07 10:24:00,
2013-05-07 03:29:00,46.2,40.1,29.50,NE,45,0.0,0.0,79,0.00,,,0.00,WUHU216HW,2013-05-07 10:29:00,
2013-05-07 03:34:00,46.0,39.9,29.50,NE,45,0.0,0.0,79,0.00,,,0.00,WUHU216HW,2013-05-07 10:34:00,
2013-05-07 03:39:00,46.0,39.9,29.50,NE,45,0.0,0.0,79,0.00,,,0.00,WUHU216HW,2013-05-07 10:39:00,
2013-05-07 03:44:00,45.6,39.5,29.50,NE,45,0.0,0.0,79,0.00,,,0.00,WUHU216HW,2013-05-07 10:44:00,
2013-05-07 03:49:00,45.6,39.5,29.51,NE,45,0.0,0.0,79,0.00,,,0.00,WUHU216HW,2013-05-07 10:49:00,
2013-05-07 03:54:00,45.5,39.3,29.51,NE,45,0.0,0.0,79,0.00,,,0.00,WUHU216HW,2013-05-07 10:54:00,
2013-05-07 03:59:00,45.3,39.2,29.51,NE,45,0.0,0.0,79,0.00,,,0.00,WUHU216HW,2013-05-07 10:59:00,
2013-05-07 04:04:00,45.3,39.5,29.51,NE,45,0.0,0.0,80,0.00,,,0.00,WUHU216HW,2013-05-07 11:04:00,
2013-05-07 04:09:00,45.1,39.3,29.51,NE,45,0.0,0.0,80,0.00,,,0.00,WUHU216HW,2013-05-07 11:09:00,
2013-05-07 04:14:00,44.9,39.2,29.51,NE,45,0.0,0.0,80,0.00,,,0.00,WUHU216HW,2013-05-07 11:14:00,
2013-05-07 04:19:00,44.9,39.2,29.52,NE,45,0.0,0.0,80,0.00,,,0.00,WUHU216HW,2013-05-07 11:19:00,
2013-05-07 04:24:00,44.7,39.3,29.51,NE,45,0.0,0.0,81,0.00,,,0.00,WUHU216HW,2013-05-07 11:24:00,
2013-05-07 04:29:00,44.6,39.1,29.52,NE,45,0.0,0.0,81,0.00,,,0.00,WUHU216HW,2013-05-07 11:29:00,
2013-05-07 04:34:00,44.6,39.1,29.52,NE,45,0.0,0.0,81,0.00,,,0.00,WUHU216HW,2013-05-07 11:34:00,
2013-05-07 04:39:00,44.4,38.9,29.52,NE,45,0.0,0.0,81,0.00,,,0.00,WUHU216HW,2013-05-07 11:39:00,
2013-05-07 04:44:00,44.4,38.9,29.52,NE,45,0.0,0.0,81,0.00,,,0.00,WUHU216HW,2013-05-07 11:44:00,
2013-05-07 04:49:00,44.2,38.7,29.53,NE,45,0.0,0.0,81,0.00,,,0.00,WUHU216HW,2013-05-07 11:49:00,
2013-05-07 04:54:00,44.0,38.7,29.52,NE,45,0.0,0.0,81,0.00,,,0.00,WUHU216HW,2013-05-07 11:54:00,
2013-05-07 04:59:00,43.8,38.7,29.53,NE,45,0.0,0.0,82,0.00,,,0.00,WUHU216HW,2013-05-07 11:59:00,
2013-05-07 05:04:00,43.7,38.5,29.53,NE,45,0.0,0.0,82,0.00,,,0.00,WUHU216HW,2013-05-07 12:04:00,
2013-05-07 05:09:00,43.7,38.5,29.53,NE,45,0.0,0.0,82,0.00,,,0.00,WUHU216HW,2013-05-07 12:09:00,
2013-05-07 05:14:00,43.5,38.3,29.52,NE,45,0.0,0.0,82,0.00,,,0.00,WUHU216HW,2013-05-07 12:14:00,
2013-05-07 05:19:00,43.3,38.1,29.53,NE,45,0.0,0.0,82,0.00,,,0.00,WUHU216HW,2013-05-07 12:19:00,
2013-05-07 05:25:00,43.3,38.1,29.53,NE,45,0.0,0.0,82,0.00,,,0.00,WUHU216HW,2013-05-07 12:25:00,
2013-05-07 05:30:00,43.1,38.3,29.53,NE,45,0.0,0.0,83,0.00,,,0.00,WUHU216HW,2013-05-07 12:30:00,
2013-05-07 05:35:00,42.9,38.1,29.53,NE,45,0.0,0.0,83,0.00,,,0.00,WUHU216HW,2013-05-07 12:35:00,
2013-05-07 05:40:00,42.9,38.1,29.53,NE,45,0.0,0.0,83,0.00,,,0.00,WUHU216HW,2013-05-07 12:40:00,
2013-05-07 05:45:00,42.9,38.1,29.53,NE,45,0.0,0.0,83,0.00,,,0.00,WUHU216HW,2013-05-07 12:45:00,
2013-05-07 05:50:00,42.6,37.7,29.54,NE,45,0.0,0.0,83,0.00,,,0.00,WUHU216HW,2013-05-07 12:50:00,
2013-05-07 05:55:00,42.6,37.7,29.54,NE,45,0.0,0.0,83,0.00,,,0.00,WUHU216HW,2013-05-07 12:55:00,
2013-05-07 06:00:00,42.6,37.7,29.54,NE,45,0.0,0.0,83,0.00,,,0.00,WUHU216HW,2013-05-07 13:00:00,
2013-05-07 06:05:00,42.6,37.7,29.54,NE,45,0.0,0.0,83,0.00,,,0.00,WUHU216HW,2013-05-07 13:05:00,
2013-05-07 06:10:00,42.6,37.7,29.54,NE,45,0.0,0.0,83,0.00,,,0.00,WUHU216HW,2013-05-07 13:10:00,
2013-05-07 06:15:00,42.6,37.7,29.54,NE,45,0.0,0.0,83,0.00,,,0.00,WUHU216HW,2013-05-07 13:15:00,
2013-05-07 06:20:00,42.6,37.7,29.54,NE,45,0.0,0.0,83,0.00,,,0.00,WUHU216HW,2013-05-07 13:20:00,
2013-05-07 06:25:00,42.4,37.5,29.54,NE,45,0.0,0.0,84,0.00,,,0.00,WUHU216HW,2013-05-07 13:25:00,
2013-05-07 06:30:00,42.4,37.9,29.55,NE,45,0.0,0.0,84,0.00,,,0.00,WUHU216HW,2013-05-07 13:30:00,
2013-05-07 06:35:00,42.4,37.9,29.55,NE,45,0.0,0.0,84,0.00,,,0.00,WUHU216HW,2013-05-07 13:35:00,
2013-05-07 06:40:00,42.4,37.9,29.55,NE,45,0.0,0.0,84,0.00,,,0.00,WUHU216HW,2013-05-07 13:40:00,
2013-05-07 06:45:00,42.6,38.0,29.56,NE,45,0.0,0.0,84,0.00,,,0.00,WUHU216HW,2013-05-07 13:45:00,
2013-05-07 06:50:00,42.4,37.9,29.55,NE,45,0.0,0.0,84,0.00,,,0.00,WUHU216HW,2013-05-07 13:50:00,
2013-05-07 06:55:00,42.6,38.0,29.56,NE,45,0.0,0.0,84,0.00,,,0.00,WUHU216HW,2013-05-07 13:55:00,
2013-05-07 07:00:00,42.4,37.9,29.55,NE,45,0.0,0.0,84,0.00,,,0.00,WUHU216HW,2013-05-07 14:00:00,
2013-05-07 07:05:00,42.6,38.0,29.55,NE,45,0.0,0.0,84,0.00,,,0.00,WUHU216HW,2013-05-07 14:05:00,
2013-05-07 07:10:00,42.6,38.0,29.55,NE,45,0.0,0.0,84,0.00,,,0.00,WUHU216HW,2013-05-07 14:10:00,
2013-05-07 07:15:00,42.6,38.0,29.56,NE,45,0.0,0.0,84,0.00,,,0.00,WUHU216HW,2013-05-07 14:15:00,
2013-05-07 07:20:00,42.9,38.4,29.56,NE,45,0.0,0.0,84,0.00,,,0.00,WUHU216HW,2013-05-07 14:20:00,
2013-05-07 07:25:00,43.1,38.6,29.56,NE,45,0.0,0.0,84,0.00,,,0.00,WUHU216HW,2013-05-07 14:25:00,
2013-05-07 07:30:00,43.3,39.1,29.56,NE,45,0.0,0.0,85,0.00,,,0.00,WUHU216HW,2013-05-07 14:30:00,
2013-05-07 07:35:00,43.5,38.9,29.56,NE,45,0.0,0.0,84,0.00,,,0.00,WUHU216HW,2013-05-07 14:35:00,
2013-05-07 07:40:00,43.5,39.2,29.56,NE,45,0.0,0.0,85,0.00,,,0.00,WUHU216HW,2013-05-07 14:40:00,
2013-05-07 07:45:00,43.7,39.4,29.56,NE,45,0.0,0.0,85,0.00,,,0.00,WUHU216HW,2013-05-07 14:45:00,
2013-05-07 07:50:00,44.2,40.0,29.56,NE,45,0.0,0.0,85,0.00,,,0.00,WUHU216HW,2013-05-07 14:50:00,
2013-05-07 07:55:00,44.2,40.0,29.56,NE,45,0.0,0.0,85,0.00,,,0.00,WUHU216HW,2013-05-07 14:55:00,
2013-05-07 08:00:00,44.6,40.6,29.56,NE,45,0.0,0.0,86,0.00,,,0.00,WUHU216HW,2013-05-07 15:00:00,
2013-05-07 08:05:00,45.1,41.2,29.56,NE,45,0.0,0.0,86,0.00,,,0.00,WUHU216HW,2013-05-07 15:05:00,
2013-05-07 08:10:00,45.3,41.3,29.55,NE,45,0.0,0.0,86,0.00,,,0.00,WUHU216HW,2013-05-07 15:10:00,
2013-05-07 08:15:00,45.6,41.7,29.55,NE,45,0.0,0.0,86,0.00,,,0.00,WUHU216HW,2013-05-07 15:15:00,
2013-05-07 08:20:00,47.1,43.4,29.56,NE,45,0.0,0.0,87,0.00,,,0.00,WUHU216HW,2013-05-07 15:20:00,
2013-05-07 08:25:00,48.3,44.3,29.55,NE,45,0.0,0.0,86,0.00,,,0.00,WUHU216HW,2013-05-07 15:25:00,
2013-05-07 08:30:00,49.6,45.5,29.56,NE,45,0.0,0.0,86,0.00,,,0.00,WUHU216HW,2013-05-07 15:30:00,
2013-05-07 08:35:00,50.9,45.5,29.56,South,180,0.0,0.0,82,0.00,,,0.00,WUHU216HW,2013-05-07 15:35:00,
2013-05-07 08:40:00,51.8,45.5,29.55,South,180,0.0,0.0,79,0.00,,,0.00,WUHU216HW,2013-05-07 15:40:00,
2013-05-07 08:45:00,52.1,45.8,29.55,South,180,0.0,0.0,79,0.00,,,0.00,WUHU216HW,2013-05-07 15:45:00,
2013-05-07 08:50:00,52.8,45.5,29.55,South,180,0.0,0.0,76,0.00,,,0.00,WUHU216HW,2013-05-07 15:50:00,
2013-05-07 08:55:00,53.4,46.0,29.55,South,180,0.0,0.0,76,0.00,,,0.00,WUHU216HW,2013-05-07 15:55:00,
2013-05-07 09:00:00,53.2,45.5,29.55,South,180,0.0,0.0,75,0.00,,,0.00,WUHU216HW,2013-05-07 16:00:00,
2013-05-07 09:05:00,53.2,45.1,29.55,SSW,203,0.0,0.0,74,0.00,,,0.00,WUHU216HW,2013-05-07 16:05:00,
2013-05-07 09:10:00,53.7,45.3,29.55,North,0,0.0,0.0,73,0.00,,,0.00,WUHU216HW,2013-05-07 16:10:00,
2013-05-07 09:15:00,54.1,45.3,29.55,South,180,0.0,0.0,72,0.00,,,0.00,WUHU216HW,2013-05-07 16:15:00,
2013-05-07 09:20:00,54.3,45.4,29.55,South,180,0.0,0.0,72,0.00,,,0.00,WUHU216HW,2013-05-07 16:20:00,
2013-05-07 09:25:00,54.5,45.6,29.55,South,180,0.0,0.0,72,0.00,,,0.00,WUHU216HW,2013-05-07 16:25:00,
2013-05-07 09:30:00,54.8,46.0,29.55,SSW,203,0.0,0.0,72,0.00,,,0.00,WUHU216HW,2013-05-07 16:30:00,
2013-05-07 09:35:00,55.4,46.2,29.55,SSW,203,0.0,0.0,71,0.00,,,0.00,WUHU216HW,2013-05-07 16:35:00,
2013-05-07 09:40:00,55.7,46.1,29.55,South,180,0.0,0.0,70,0.00,,,0.00,WUHU216HW,2013-05-07 16:40:00,
2013-05-07 09:45:00,56.3,46.2,29.55,South,180,0.0,0.0,69,0.00,,,0.00,WUHU216HW,2013-05-07 16:45:00,
2013-05-07 09:51:00,57.0,46.9,29.55,South,180,0.0,0.0,69,0.00,,,0.00,WUHU216HW,2013-05-07 16:51:00,
2013-05-07 09:56:00,57.3,46.4,29.55,South,180,0.0,0.0,67,0.00,,,0.00,WUHU216HW,2013-05-07 16:56:00,
2013-05-07 10:01:00,57.9,46.9,29.55,South,180,0.0,0.0,67,0.00,,,0.00,WUHU216HW,2013-05-07 17:01:00,
2013-05-07 10:06:00,58.6,47.6,29.54,South,180,0.0,0.0,67,0.00,,,0.00,WUHU216HW,2013-05-07 17:06:00,
2013-05-07 10:11:00,59.3,48.3,29.54,South,180,0.0,0.0,67,0.00,,,0.00,WUHU216HW,2013-05-07 17:11:00,
2013-05-07 10:16:00,60.6,49.6,29.55,South,180,0.0,0.0,67,0.00,,,0.00,WUHU216HW,2013-05-07 17:16:00,
2013-05-07 10:21:00,62.7,50.7,29.54,WSW,248,0.0,0.0,65,0.00,,,0.00,WUHU216HW,2013-05-07 17:21:00,
2013-05-07 10:26:00,64.0,50.2,29.54,SW,225,1.5,1.5,61,0.00,,,0.00,WUHU216HW,2013-05-07 17:26:00,
2013-05-07 10:31:00,64.5,51.2,29.54,WNW,293,0.0,1.5,62,0.00,,,0.00,WUHU216HW,2013-05-07 17:31:00,
2013-05-07 10:36:00,65.4,51.2,29.54,WSW,248,0.0,0.0,60,0.00,,,0.00,WUHU216HW,2013-05-07 17:36:00,
2013-05-07 10:41:00,66.0,51.8,29.54,West,270,0.0,0.0,60,0.00,,,0.00,WUHU216HW,2013-05-07 17:41:00,
2013-05-07 10:46:00,67.2,51.9,29.54,South,180,0.0,0.0,58,0.00,,,0.00,WUHU216HW,2013-05-07 17:46:00,
2013-05-07 10:51:00,69.4,53.0,29.54,WNW,293,0.0,0.0,56,0.00,,,0.00,WUHU216HW,2013-05-07 17:51:00,
2013-05-07 10:56:00,70.8,54.3,29.54,WNW,293,0.0,0.0,56,0.00,,,0.00,WUHU216HW,2013-05-07 17:56:00,
2013-05-07 11:01:00,72.1,53.9,29.54,West,270,0.0,0.0,53,0.00,,,0.00,WUHU216HW,2013-05-07 18:01:00,
2013-05-07 11:06:00,73.0,54.2,29.54,SSE,158,0.0,0.0,52,0.00,,,0.00,WUHU216HW,2013-05-07 18:06:00,
2013-05-07 11:11:00,73.7,53.9,29.54,WNW,293,0.0,0.0,50,0.00,,,0.00,WUHU216HW,2013-05-07 18:11:00,
2013-05-07 11:16:00,74.1,54.3,29.54,ENE,68,0.0,0.0,50,0.00,,,0.00,WUHU216HW,2013-05-07 18:16:00,
2013-05-07 11:21:00,75.0,55.2,29.53,NNE,23,0.0,0.0,50,0.00,,,0.00,WUHU216HW,2013-05-07 18:21:00,
2013-05-07 11:26:00,75.9,55.4,29.53,SE,135,0.0,0.0,49,0.00,,,0.00,WUHU216HW,2013-05-07 18:26:00,
2013-05-07 11:31:00,75.9,54.8,29.54,NNE,23,0.0,0.0,48,0.00,,,0.00,WUHU216HW,2013-05-07 18:31:00,
2013-05-07 11:36:00,76.6,54.8,29.54,WNW,293,0.0,1.3,47,0.00,,,0.00,WUHU216HW,2013-05-07 18:36:00,
2013-05-07 11:41:00,76.8,55.5,29.53,North,0,2.0,2.0,47,0.00,,,0.00,WUHU216HW,2013-05-07 18:41:00,
2013-05-07 11:46:00,77.5,55.0,29.53,South,180,0.0,2.0,46,0.00,,,0.00,WUHU216HW,2013-05-07 18:46:00,
2013-05-07 11:51:00,77.9,55.3,29.53,WSW,248,0.0,2.0,46,0.00,,,0.00,WUHU216HW,2013-05-07 18:51:00,
2013-05-07 11:56:00,78.4,55.5,29.53,WNW,293,0.0,0.0,46,0.00,,,0.00,WUHU216HW,2013-05-07 18:56:00,
2013-05-07 12:01:00,77.5,54.4,29.53,SSE,158,0.0,0.8,45,0.00,,,0.00,WUHU216HW,2013-05-07 19:01:00,
2013-05-07 12:06:00,78.0,54.9,29.53,East,90,0.0,0.8,45,0.00,,,0.00,WUHU216HW,2013-05-07 19:06:00,
2013-05-07 12:11:00,78.0,54.9,29.53,NW,315,0.0,2.2,46,0.00,,,0.00,WUHU216HW,2013-05-07 19:11:00,
2013-05-07 12:16:00,78.6,56.0,29.53,North,0,2.4,2.4,46,0.00,,,0.00,WUHU216HW,2013-05-07 19:16:00,
2013-05-07 12:21:00,78.6,55.4,29.53,North,0,2.2,2.4,45,0.00,,,0.00,WUHU216HW,2013-05-07 19:21:00,
2013-05-07 12:26:00,78.6,55.4,29.53,SSE,158,0.0,2.4,45,0.00,,,0.00,WUHU216HW,2013-05-07 19:26:00,
2013-05-07 12:31:00,78.4,55.2,29.53,SSE,158,0.0,2.4,45,0.00,,,0.00,WUHU216HW,2013-05-07 19:31:00,
2013-05-07 12:36:00,78.6,55.4,29.53,SSE,158,0.0,0.0,45,0.00,,,0.00,WUHU216HW,2013-05-07 19:36:00,
2013-05-07 12:41:00,77.7,53.9,29.53,North,0,1.5,1.5,44,0.00,,,0.00,WUHU216HW,2013-05-07 19:41:00,
2013-05-07 12:46:00,78.2,55.0,29.53,NW,315,0.0,1.5,45,0.00,,,0.00,WUHU216HW,2013-05-07 19:46:00,
2013-05-07 12:51:00,78.6,55.4,29.52,NW,315,0.0,1.5,45,0.00,,,0.00,WUHU216HW,2013-05-07 19:51:00,
2013-05-07 12:56:00,78.2,54.4,29.52,WNW,293,0.0,0.0,44,0.00,,,0.00,WUHU216HW,2013-05-07 19:56:00,
2013-05-07 13:01:00,78.0,54.3,29.52,South,180,0.8,1.1,44,0.00,,,0.00,WUHU216HW,2013-05-07 20:01:00,
2013-05-07 13:07:00,77.7,54.6,29.52,ENE,68,0.0,1.1,45,0.00,,,0.00,WUHU216HW,2013-05-07 20:07:00,
2013-05-07 13:12:00,77.9,55.3,29.53,North,0,0.0,1.3,46,0.00,,,0.00,WUHU216HW,2013-05-07 20:12:00,
2013-05-07 13:17:00,77.7,54.6,29.52,NE,45,2.2,2.2,45,0.00,,,0.00,WUHU216HW,2013-05-07 20:17:00,
2013-05-07 13:22:00,77.5,54.4,29.52,NW,315,0.0,2.2,45,0.00,,,0.00,WUHU216HW,2013-05-07 20:22:00,
2013-05-07 13:27:00,76.8,53.7,29.52,West,270,0.0,2.2,45,0.00,,,0.00,WUHU216HW,2013-05-07 20:27:00,
2013-05-07 13:32:00,76.8,53.7,29.51,West,270,0.0,2.2,45,0.00,,,0.00,WUHU216HW,2013-05-07 20:32:00,
2013-05-07 13:37:00,76.6,53.6,29.52,ENE,68,0.0,2.2,45,0.00,,,0.00,WUHU216HW,2013-05-07 20:37:00,
2013-05-07 13:42:00,76.2,53.9,29.52,South,180,0.0,0.0,46,0.00,,,0.00,WUHU216HW,2013-05-07 20:42:00,
2013-05-07 13:47:00,76.1,53.1,29.52,West,270,0.0,0.0,45,0.00,,,0.00,WUHU216HW,2013-05-07 20:47:00,
2013-05-07 13:52:00,76.1,53.7,29.53,WSW,248,0.0,0.0,46,0.00,,,0.00,WUHU216HW,2013-05-07 20:52:00,
2013-05-07 13:57:00,76.1,53.7,29.53,West,270,0.0,0.0,46,0.00,,,0.00,WUHU216HW,2013-05-07 20:57:00,
2013-05-07 14:02:00,75.9,53.6,29.53,WNW,293,0.0,0.0,46,0.00,,,0.00,WUHU216HW,2013-05-07 21:02:00,
2013-05-07 14:07:00,75.9,53.6,29.52,South,180,0.0,0.0,46,0.00,,,0.00,WUHU216HW,2013-05-07 21:07:00,
2013-05-07 14:12:00,76.1,53.7,29.52,SSW,203,0.0,0.0,46,0.00,,,0.00,WUHU216HW,2013-05-07 21:12:00,
2013-05-07 14:17:00,76.2,53.9,29.52,West,270,1.1,1.1,46,0.00,,,0.00,WUHU216HW,2013-05-07 21:17:00,
2013-05-07 14:22:00,75.5,53.2,29.53,South,180,0.0,1.1,46,0.00,,,0.00,WUHU216HW,2013-05-07 21:22:00,
2013-05-07 14:27:00,75.3,53.7,29.52,WSW,248,0.0,0.0,47,0.00,,,0.00,WUHU216HW,2013-05-07 21:27:00,
2013-05-07 14:32:00,75.0,53.3,29.53,West,270,0.0,0.0,47,0.00,,,0.00,WUHU216HW,2013-05-07 21:32:00,
2013-05-07 14:37:00,74.4,52.8,29.53,West,270,0.0,0.0,47,0.00,,,0.00,WUHU216HW,2013-05-07 21:37:00,
2013-05-07 14:42:00,74.1,52.5,29.52,SSE,158,0.0,0.0,47,0.00,,,0.00,WUHU216HW,2013-05-07 21:42:00,
2013-05-07 14:47:00,73.9,52.7,29.52,SSW,203,0.0,0.0,47,0.00,,,0.00,WUHU216HW,2013-05-07 21:47:00,
2013-05-07 14:52:00,73.2,52.2,29.53,NNE,23,2.4,2.4,48,0.00,,,0.00,WUHU216HW,2013-05-07 21:52:00,
2013-05-07 14:57:00,72.8,51.9,29.52,WNW,293,0.0,2.4,48,0.00,,,0.00,WUHU216HW,2013-05-07 21:57:00,
2013-05-07 15:02:00,72.3,52.0,29.53,SW,225,0.0,2.4,49,0.00,,,0.00,WUHU216HW,2013-05-07 22:02:00,
2013-05-07 15:07:00,72.1,52.4,29.52,SW,225,0.0,0.0,50,0.00,,,0.00,WUHU216HW,2013-05-07 22:07:00,
2013-05-07 15:12:00,72.1,52.4,29.53,WSW,248,1.1,1.1,50,0.00,,,0.00,WUHU216HW,2013-05-07 22:12:00,
2013-05-07 15:17:00,72.1,52.4,29.52,SSE,158,0.0,1.1,50,0.00,,,0.00,WUHU216HW,2013-05-07 22:17:00,
2013-05-07 15:22:00,71.9,52.3,29.52,NW,315,0.0,0.0,50,0.00,,,0.00,WUHU216HW,2013-05-07 22:22:00,
2013-05-07 15:27:00,71.7,52.6,29.52,SW,225,0.0,0.8,51,0.00,,,0.00,WUHU216HW,2013-05-07 22:27:00,
2013-05-07 15:32:00,71.4,51.8,29.52,WSW,248,0.0,0.8,50,0.00,,,0.00,WUHU216HW,2013-05-07 22:32:00,
2013-05-07 15:37:00,71.4,52.3,29.53,West,270,0.0,0.0,51,0.00,,,0.00,WUHU216HW,2013-05-07 22:37:00,
2013-05-07 15:42:00,71.4,52.8,29.52,NW,315,0.0,0.0,52,0.00,,,0.00,WUHU216HW,2013-05-07 22:42:00,
2013-05-07 15:47:00,71.7,53.1,29.52,West,270,0.0,0.0,52,0.00,,,0.00,WUHU216HW,2013-05-07 22:47:00,
2013-05-07 15:52:00,71.4,52.3,29.52,WSW,248,0.0,0.0,51,0.00,,,0.00,WUHU216HW,2013-05-07 22:52:00,
2013-05-07 15:57:00,71.4,52.8,29.52,West,270,0.0,0.0,52,0.00,,,0.00,WUHU216HW,2013-05-07 22:57:00,
2013-05-07 16:02:00,71.4,52.8,29.52,SW,225,0.0,1.1,52,0.00,,,0.00,WUHU216HW,2013-05-07 23:02:00,
2013-05-07 16:07:00,71.2,52.6,29.52,WSW,248,0.0,1.1,52,0.00,,,0.00,WUHU216HW,2013-05-07 23:07:00,
2013-05-07 16:12:00,71.2,52.6,29.51,SSW,203,0.0,0.0,52,0.00,,,0.00,WUHU216HW,2013-05-07 23:12:00,
2013-05-07 16:17:00,70.8,52.3,29.51,NNW,338,0.0,1.3,52,0.00,,,0.00,WUHU216HW,2013-05-07 23:17:00,
2013-05-07 16:23:00,70.8,52.3,29.52,ENE,68,0.0,1.3,52,0.00,,,0.00,WUHU216HW,2013-05-07 23:23:00,
2013-05-07 16:28:00,70.8,52.8,29.52,NW,315,0.0,0.0,53,0.00,,,0.00,WUHU216HW,2013-05-07 23:28:00,
2013-05-07 16:33:00,70.7,52.6,29.51,North,0,0.0,0.0,53,0.00,,,0.00,WUHU216HW,2013-05-07 23:33:00,
2013-05-07 16:38:00,70.7,52.6,29.52,SSE,158,0.0,0.0,53,0.00,,,0.00,WUHU216HW,2013-05-07 23:38:00,
2013-05-07 16:43:00,70.5,53.0,29.52,SW,225,0.0,0.0,54,0.00,,,0.00,WUHU216HW,2013-05-07 23:43:00,
2013-05-07 16:48:00,70.1,52.1,29.52,SSE,158,0.0,0.0,53,0.00,,,0.00,WUHU216HW,2013-05-07 23:48:00,
2013-05-07 16:53:00,69.9,52.5,29.52,NNE,23,1.1,1.1,54,0.00,,,0.00,WUHU216HW,2013-05-07 23:53:00,
2013-05-07 16:58:00,69.8,52.8,29.52,WSW,248,0.0,1.1,55,0.00,,,0.00,WUHU216HW,2013-05-07 23:58:00,
2013-05-07 17:03:00,69.6,52.7,29.52,NW,315,0.0,1.1,55,0.00,,,0.00,WUHU216HW,2013-05-08 00:03:00,
2013-05-07 17:08:00,69.4,52.5,29.52,West,270,0.0,0.0,55,0.00,,,0.00,WUHU216HW,2013-05-08 00:08:00,
2013-05-07 17:13:00,69.2,51.8,29.52,NNE,23,0.0,0.0,54,0.00,,,0.00,WUHU216HW,2013-05-08 00:13:00,
2013-05-07 17:18:00,69.0,52.1,29.51,NW,315,0.0,0.0,55,0.00,,,0.00,WUHU216HW,2013-05-08 00:18:00,
2013-05-07 17:23:00,68.9,52.0,29.51,West,270,0.0,0.0,55,0.00,,,0.00,WUHU216HW,2013-05-08 00:23:00,
2013-05-07 17:28:00,68.7,52.3,29.52,West,270,0.0,0.0,56,0.00,,,0.00,WUHU216HW,2013-05-08 00:28:00,
2013-05-07 17:33:00,68.5,52.1,29.52,WNW,293,0.0,0.0,56,0.00,,,0.00,WUHU216HW,2013-05-08 00:33:00,
2013-05-07 17:38:00,68.1,51.8,29.52,SSE,158,0.0,0.0,56,0.00,,,0.00,WUHU216HW,2013-05-08 00:38:00,
2013-05-07 17:43:00,67.8,51.9,29.52,SW,225,0.0,0.0,57,0.00,,,0.00,WUHU216HW,2013-05-08 00:43:00,
2013-05-07 17:48:00,67.6,52.3,29.53,SSW,203,0.0,0.0,58,0.00,,,0.00,WUHU216HW,2013-05-08 00:48:00,
2013-05-07 17:53:00,67.2,51.9,29.52,NNE,23,1.1,1.1,58,0.00,,,0.00,WUHU216HW,2013-05-08 00:53:00,
2013-05-07 17:58:00,67.2,52.4,29.53,WNW,293,0.0,1.1,59,0.00,,,0.00,WUHU216HW,2013-05-08 00:58:00,
2013-05-07 18:03:00,67.1,52.7,29.52,SSW,203,0.0,0.0,60,0.00,,,0.00,WUHU216HW,2013-05-08 01:03:00,
2013-05-07 18:08:00,66.9,52.6,29.52,SW,225,0.0,0.0,60,0.00,,,0.00,WUHU216HW,2013-05-08 01:08:00,
2013-05-07 18:13:00,66.5,51.8,29.52,South,180,0.0,0.0,59,0.00,,,0.00,WUHU216HW,2013-05-08 01:13:00,
2013-05-07 18:18:00,66.5,51.8,29.52,SSW,203,0.0,0.0,59,0.00,,,0.00,WUHU216HW,2013-05-08 01:18:00,
2013-05-07 18:23:00,66.2,51.9,29.52,South,180,0.0,0.0,60,0.00,,,0.00,WUHU216HW,2013-05-08 01:23:00,
2013-05-07 18:28:00,66.0,51.8,29.52,South,180,0.0,0.0,60,0.00,,,0.00,WUHU216HW,2013-05-08 01:28:00,
2013-05-07 18:33:00,66.0,52.2,29.52,South,180,0.0,0.0,61,0.00,,,0.00,WUHU216HW,2013-05-08 01:33:00,
2013-05-07 18:38:00,65.8,52.0,29.53,East,90,0.0,0.0,61,0.00,,,0.00,WUHU216HW,2013-05-08 01:38:00,
2013-05-07 18:43:00,65.6,51.8,29.53,West,270,0.0,0.0,61,0.00,,,0.00,WUHU216HW,2013-05-08 01:43:00,
2013-05-07 18:48:00,65.4,51.6,29.53,SW,225,0.0,0.0,61,0.00,,,0.00,WUHU216HW,2013-05-08 01:48:00,
2013-05-07 18:53:00,65.1,51.7,29.53,SW,225,0.0,0.0,62,0.00,,,0.00,WUHU216HW,2013-05-08 01:53:00,
2013-05-07 18:58:00,65.1,51.7,29.53,SW,225,0.0,0.0,62,0.00,,,0.00,WUHU216HW,2013-05-08 01:58:00,
2013-05-07 19:03:00,64.7,51.8,29.53,SW,225,0.0,0.0,63,0.00,,,0.00,WUHU216HW,2013-05-08 02:03:00,
2013-05-07 19:08:00,64.5,51.6,29.53,SW,225,0.0,0.0,63,0.00,,,0.00,WUHU216HW,2013-05-08 02:08:00,
2013-05-07 19:13:00,64.2,51.7,29.53,ESE,113,0.0,0.0,64,0.00,,,0.00,WUHU216HW,2013-05-08 02:13:00,
2013-05-07 19:18:00,64.2,51.7,29.53,South,180,0.0,0.0,64,0.00,,,0.00,WUHU216HW,2013-05-08 02:18:00,
2013-05-07 19:23:00,64.0,51.9,29.53,South,180,0.0,0.0,65,0.00,,,0.00,WUHU216HW,2013-05-08 02:23:00,
2013-05-07 19:28:00,63.6,51.2,29.54,South,180,0.0,0.0,64,0.00,,,0.00,WUHU216HW,2013-05-08 02:28:00,
2013-05-07 19:33:00,63.3,51.3,29.54,South,180,0.0,0.0,65,0.00,,,0.00,WUHU216HW,2013-05-08 02:33:00,
2013-05-07 19:38:00,63.1,51.1,29.54,South,180,0.0,0.0,65,0.00,,,0.00,WUHU216HW,2013-05-08 02:38:00,
2013-05-07 19:43:00,62.7,51.2,29.54,South,180,0.0,0.0,66,0.00,,,0.00,WUHU216HW,2013-05-08 02:43:00,
2013-05-07 19:48:00,62.6,51.4,29.54,South,180,0.0,0.0,67,0.00,,,0.00,WUHU216HW,2013-05-08 02:48:00,
2013-05-07 19:53:00,62.4,51.2,29.54,South,180,0.0,0.0,67,0.00,,,0.00,WUHU216HW,2013-05-08 02:53:00,
2013-05-07 19:59:00,62.2,51.5,29.54,South,180,0.0,0.0,68,0.00,,,0.00,WUHU216HW,2013-05-08 02:59:00,
2013-05-07 20:04:00,61.8,50.8,29.55,South,180,0.0,0.0,67,0.00,,,0.00,WUHU216HW,2013-05-08 03:04:00,
2013-05-07 20:09:00,61.5,50.9,29.54,South,180,0.0,0.0,68,0.00,,,0.00,WUHU216HW,2013-05-08 03:09:00,
2013-05-07 20:14:00,61.3,51.1,29.54,South,180,0.0,0.0,69,0.00,,,0.00,WUHU216HW,2013-05-08 03:14:00,
2013-05-07 20:19:00,60.9,50.8,29.54,South,180,0.0,0.0,69,0.00,,,0.00,WUHU216HW,2013-05-08 03:19:00,
2013-05-07 20:24:00,60.6,50.4,29.55,South,180,0.0,0.0,69,0.00,,,0.00,WUHU216HW,2013-05-08 03:24:00,
2013-05-07 20:29:00,60.4,50.7,29.55,SW,225,0.0,0.0,70,0.00,,,0.00,WUHU216HW,2013-05-08 03:29:00,
2013-05-07 20:34:00,60.4,50.7,29.54,SSW,203,0.0,0.0,70,0.00,,,0.00,WUHU216HW,2013-05-08 03:34:00,
2013-05-07 20:39:00,59.7,50.3,29.55,SSW,203,0.0,0.0,71,0.00,,,0.00,WUHU216HW,2013-05-08 03:39:00,
2013-05-07 20:44:00,59.3,50.3,29.55,SSW,203,0.0,0.0,72,0.00,,,0.00,WUHU216HW,2013-05-08 03:44:00,
2013-05-07 20:49:00,59.0,50.0,29.56,SSW,203,0.0,0.0,72,0.00,,,0.00,WUHU216HW,2013-05-08 03:49:00,
2013-05-07 20:54:00,58.8,49.8,29.56,SSW,203,0.0,0.0,72,0.00,,,0.00,WUHU216HW,2013-05-08 03:54:00,
2013-05-07 20:59:00,58.8,50.1,29.56,SSW,203,0.0,0.0,73,0.00,,,0.00,WUHU216HW,2013-05-08 03:59:00,
2013-05-07 21:04:00,58.6,50.0,29.56,SSW,203,0.0,0.0,73,0.00,,,0.00,WUHU216HW,2013-05-08 04:04:00,
2013-05-07 21:09:00,58.4,50.0,29.57,SSW,203,0.0,0.0,73,0.00,,,0.00,WUHU216HW,2013-05-08 04:09:00,
2013-05-07 21:14:00,58.1,49.8,29.57,SSW,203,0.0,0.0,74,0.00,,,0.00,WUHU216HW,2013-05-08 04:14:00,
2013-05-07 21:19:00,57.9,49.6,29.57,SSW,203,0.0,0.0,74,0.00,,,0.00,WUHU216HW,2013-05-08 04:19:00,
2013-05-07 21:24:00,57.7,49.8,29.57,SSW,203,0.0,0.0,75,0.00,,,0.00,WUHU216HW,2013-05-08 04:24:00,
2013-05-07 21:29:00,57.5,49.6,29.57,SSW,203,0.0,0.0,75,0.00,,,0.00,WUHU216HW,2013-05-08 04:29:00,
2013-05-07 21:34:00,57.3,49.8,29.57,SSW,203,0.0,0.0,76,0.00,,,0.00,WUHU216HW,2013-05-08 04:34:00,
2013-05-07 21:39:00,57.0,49.4,29.58,SSW,203,0.0,0.0,76,0.00,,,0.00,WUHU216HW,2013-05-08 04:39:00,
2013-05-07 21:44:00,56.8,49.6,29.57,SSW,203,0.0,0.0,77,0.00,,,0.00,WUHU216HW,2013-05-08 04:44:00,
2013-05-07 21:49:00,56.8,49.6,29.58,SSW,203,0.0,0.0,77,0.00,,,0.00,WUHU216HW,2013-05-08 04:49:00,
2013-05-07 21:54:00,56.4,49.6,29.58,SSW,203,0.0,0.0,78,0.00,,,0.00,WUHU216HW,2013-05-08 04:54:00,
2013-05-07 21:59:00,56.3,49.4,29.59,SSW,203,0.0,0.0,78,0.00,,,0.00,WUHU216HW,2013-05-08 04:59:00,
2013-05-07 22:04:00,55.9,49.1,29.58,SSW,203,0.0,0.0,78,0.00,,,0.00,WUHU216HW,2013-05-08 05:04:00,
2013-05-07 22:09:00,55.5,48.7,29.59,SSW,203,0.0,0.0,78,0.00,,,0.00,WUHU216HW,2013-05-08 05:09:00,
2013-05-07 22:14:00,55.5,49.1,29.59,SSW,203,0.0,0.0,79,0.00,,,0.00,WUHU216HW,2013-05-08 05:14:00,
2013-05-07 22:19:00,55.2,48.7,29.59,SSW,203,0.0,0.0,79,0.00,,,0.00,WUHU216HW,2013-05-08 05:19:00,
2013-05-07 22:24:00,55.2,48.7,29.59,SSW,203,0.0,0.0,79,0.00,,,0.00,WUHU216HW,2013-05-08 05:24:00,
2013-05-07 22:29:00,54.8,48.4,29.59,SSW,203,0.0,0.0,79,0.00,,,0.00,WUHU216HW,2013-05-08 05:29:00,
2013-05-07 22:34:00,54.5,48.1,29.60,SSW,203,0.0,0.0,79,0.00,,,0.00,WUHU216HW,2013-05-08 05:34:00,
2013-05-07 22:39:00,54.3,48.3,29.59,SSW,203,0.0,0.0,80,0.00,,,0.00,WUHU216HW,2013-05-08 05:39:00,
2013-05-07 22:44:00,54.1,48.1,29.60,SSW,203,0.0,0.0,80,0.00,,,0.00,WUHU216HW,2013-05-08 05:44:00,
2013-05-07 22:49:00,53.7,47.8,29.60,SSW,203,0.0,0.0,80,0.00,,,0.00,WUHU216HW,2013-05-08 05:49:00,
2013-05-07 22:54:00,53.7,47.8,29.60,SSW,203,0.0,0.0,80,0.00,,,0.00,WUHU216HW,2013-05-08 05:54:00,
2013-05-07 22:59:00,53.6,47.6,29.60,SSW,203,0.0,0.0,80,0.00,,,0.00,WUHU216HW,2013-05-08 05:59:00,
2013-05-07 23:04:00,53.4,47.4,29.61,SSW,203,0.0,0.0,80,0.00,,,0.00,WUHU216HW,2013-05-08 06:04:00,
2013-05-07 23:09:00,53.0,47.1,29.60,SSW,203,0.0,0.0,80,0.00,,,0.00,WUHU216HW,2013-05-08 06:09:00,
2013-05-07 23:14:00,52.8,47.2,29.60,SSW,203,0.0,0.0,81,0.00,,,0.00,WUHU216HW,2013-05-08 06:14:00,
2013-05-07 23:19:00,52.5,46.8,29.60,SSW,203,0.0,0.0,81,0.00,,,0.00,WUHU216HW,2013-05-08 06:19:00,
2013-05-07 23:24:00,52.3,46.7,29.60,SSW,203,0.0,0.0,81,0.00,,,0.00,WUHU216HW,2013-05-08 06:24:00,
2013-05-07 23:29:00,52.1,46.5,29.60,SSW,203,0.0,0.0,81,0.00,,,0.00,WUHU216HW,2013-05-08 06:29:00,
2013-05-07 23:34:00,51.9,46.6,29.60,SSW,203,0.0,0.0,82,0.00,,,0.00,WUHU216HW,2013-05-08 06:34:00,
2013-05-07 23:39:00,51.9,46.6,29.60,SSW,203,0.0,0.0,82,0.00,,,0.00,WUHU216HW,2013-05-08 06:39:00,
2013-05-07 23:44:00,51.8,46.4,29.60,SSW,203,0.0,0.0,82,0.00,,,0.00,WUHU216HW,2013-05-08 06:44:00,
2013-05-07 23:49:00,51.4,46.4,29.61,SSW,203,0.0,0.0,83,0.00,,,0.00,WUHU216HW,2013-05-08 06:49:00,
2013-05-07 23:54:00,51.2,45.9,29.61,SSW,203,0.0,0.0,82,0.00,,,0.00,WUHU216HW,2013-05-08 06:54:00,
2013-05-07 23:59:00,51.0,45.7,29.60,SSW,203,0.0,0.0,82,0.00,,,0.00,WUHU216HW,2013-05-08 06:59:00,